Current weather by "City, St" or "zip code"  
 

Current Conditions: Albany International Airport, NY

Overcast


66.0 F

Last Updated on May 21 2022, 4:51 am EDT
Humidity: 87%
Wind Speed: S 11.5 G 20.7 mph
Barometer 29.90 in
Dewpoint: 62.1 F
Visibility: 10.00 mi
Precip: --
Heat Index: NA
Wind Chill: NA
Current conditions at:

Albany International Airport, NY (KALB)

Lat: 42.74722 Lon: 73.79912

Local Radar Image active severe weather and emergency alerts image image weather storm and storm spotter reports image weather observation monitoring service image
Local
Radar
Active
Alerts
Storm Reports Obs
Monitoring

Sign-up For Email & Text Message Weather Alert Notification Services



Advertise Here

Observation History for Albany International Airport, NY


Time Wind
(mph)
Vis
(mi)
Weather Precip (in) Temperature (F) Relative
Humidity
Wind
Chill
(F)
Heat
Index
(F)
Pressure
Air Dwpt altimeter
(in)
sea level
(mb)
Rmks
4:51 am EDT S 11.5 G 20.7 10.00 Overcast -- 66.0 62.1 87% NA NA 29.90 1012.4
3:51 am EDT SE 12.7 G 19.6 10.00 Overcast -- 66.0 62.1 87% NA NA 29.90 1012.2
2:51 am EDT S 9.2 10.00 Overcast -- 66.0 61.0 84% NA NA 29.90 1012.3
1:51 am EDT S 12.7 10.00 Mostly Cloudy -- 66.0 61.0 84% NA NA 29.91 1012.8
12:51 am EDT S 10.4 G 19.6 10.00 Mostly Cloudy -- 67.0 61.0 81% NA NA 29.93 1013.3
11:51 pm EDT S 12.7 10.00 Mostly Cloudy -- 67.0 60.1 79% NA NA 29.94 1013.6
10:51 pm EDT S 15.0 G 21.9 10.00 Mostly Cloudy -- 68.0 60.1 76% NA NA 29.92 1013.0
9:51 pm EDT SE 11.5 G 21.9 10.00 Mostly Cloudy -- 69.0 61.0 76% NA NA 29.91 1012.7
8:51 pm EDT S 15.0 G 21.9 10.00 Mostly Cloudy -- 70.0 60.1 71% NA NA 29.90 1012.3
7:51 pm EDT S 18.4 G 35.7 10.00 Mostly Cloudy -- 72.0 59.0 64% NA NA 29.88 1011.7
5:51 pm EDT S 19.6 G 29.9 10.00 Mostly Cloudy -- 77.0 59.0 54% NA NA 29.86 1011.2
4:51 pm EDT SE 16.1 G 24.2 10.00 Mostly Cloudy -- 78.0 57.9 50% NA NA 29.86 1011.0
3:51 pm EDT SE 15.0 G 27.6 10.00 Mostly Cloudy -- 79.0 57.9 49% NA NA 29.85 1010.8
2:51 pm EDT S 20.7 G 28.8 10.00 Mostly Cloudy and Breezy -- 77.0 57.0 50% NA NA 29.88 1011.8
12:51 pm EDT SE 21.9 G 28.8 10.00 Mostly Cloudy and Breezy -- 76.0 53.1 45% NA NA 29.90 1012.4
11:51 am EDT S 10.4 10.00 Mostly Cloudy -- 74.0 57.9 57% NA NA 29.92 1013.0
10:51 am EDT S 9.2 10.00 Mostly Cloudy -- 68.0 55.9 65% NA NA 29.94 1013.6
9:51 am EDT SE 9.2 10.00 Mostly Cloudy -- 63.0 55.0 76% 62 NA 29.94 1013.8
8:51 am EDT S 4.6 10.00 Fog in Vicinity -- 57.0 52.0 83% 57 NA 29.95 1014.4
7:51 am EDT SE 3.5 10.00 Mostly Cloudy -- 55.0 51.1 87% NA NA 29.95 1014.1
6:51 am EDT NE 3.5 10.00 Mostly Cloudy -- 53.0 51.1 93% NA NA 29.93 1013.5
5:51 am EDT S 4.6 10.00 Fog in Vicinity -- 50.0 48.0 93% 48 NA 29.90 1012.6

Regional Weather Observation


Fulton County Airport, NY (KNY0)

Overcast
61.0 F

Albany International Airport, NY (KALB)

Overcast
66.0 F

Bennington Morse State Airport, VT (KDDH)

Fair
62.0 F

Glens Falls, Floyd Bennett Memorial Airport, NY (KGFL)

Overcast
65.0 F

North Adams Harriman-and-West Airport, MA (KAQW)

Fair
64.0 F

Pittsfield Municipal Airport, MA (KPSF)

Overcast
63.0 F

Advertise Here


Advertise Here